{"data":{"norad_id":63595,"epoch":"2026-09-19T13:46:00.728256Z","epoch_age_seconds":232634,"freshness":"STALE","line1":"1 63595U 25076AC  26262.57361954  .00013118  00000+0  48538-3 0  9990","line2":"2 63595  43.0046 306.5683 0001298 265.3449  94.7254 15.27579161 81487","mean_motion":15.27579161,"eccentricity":0.0001298,"inclination_deg":43.0046,"raan_deg":306.5683,"arg_perigee_deg":265.3449,"mean_anomaly_deg":94.7254,"bstar":0.00048538,"rev_number":8148,"period_min":94.266800488253,"perigee_km":482.16102602727,"apogee_km":483.94219058999,"semimajor_km":6861.1886083086,"source":"CELESTRAK","updated_at":"2026-09-21T09:00:35.050093Z"}}